Time,TemperatureF,DewpointF,PressureIn,WindDirection,WindDirectionDegrees,WindSpeedMPH,WindSpeedGustMPH,Humidity,HourlyPrecipIn,Conditions,Clouds,dailyrainin,SoftwareType,DateUTC
2013-07-07 00:00:00,66.8,52.9,29.67,North,0,0.0,0.0,61,0.00,,,0.00,WUHU216HW,2013-07-07 07:00:00,
2013-07-07 00:05:00,66.6,52.7,29.67,North,0,0.0,0.0,61,0.00,,,0.00,WUHU216HW,2013-07-07 07:05:00,
2013-07-07 00:10:00,66.4,52.6,29.67,North,0,0.0,0.0,61,0.00,,,0.00,WUHU216HW,2013-07-07 07:10:00,
2013-07-07 00:15:00,66.2,52.8,29.67,North,0,0.0,0.0,62,0.00,,,0.00,WUHU216HW,2013-07-07 07:15:00,
2013-07-07 00:20:00,66.1,52.7,29.66,North,0,0.0,0.0,62,0.00,,,0.00,WUHU216HW,2013-07-07 07:20:00,
2013-07-07 00:25:00,65.9,52.9,29.66,North,0,0.0,0.0,63,0.00,,,0.00,WUHU216HW,2013-07-07 07:25:00,
2013-07-07 00:31:00,65.7,52.8,29.67,North,0,0.0,0.0,63,0.00,,,0.00,WUHU216HW,2013-07-07 07:31:00,
2013-07-07 00:36:00,65.5,52.6,29.67,North,0,0.0,0.0,63,0.00,,,0.00,WUHU216HW,2013-07-07 07:36:00,
2013-07-07 00:41:00,65.3,52.4,29.67,North,0,0.0,0.0,63,0.00,,,0.00,WUHU216HW,2013-07-07 07:41:00,
2013-07-07 00:46:00,65.2,52.2,29.67,North,0,0.0,0.0,63,0.00,,,0.00,WUHU216HW,2013-07-07 07:46:00,
2013-07-07 00:51:00,65.0,52.5,29.67,North,0,0.0,0.0,64,0.00,,,0.00,WUHU216HW,2013-07-07 07:51:00,
2013-07-07 00:56:00,65.0,52.5,29.67,North,0,0.0,0.0,64,0.00,,,0.00,WUHU216HW,2013-07-07 07:56:00,
2013-07-07 01:01:00,64.8,52.3,29.67,North,0,0.0,0.0,64,0.00,,,0.00,WUHU216HW,2013-07-07 08:01:00,
2013-07-07 01:06:00,64.6,52.6,29.67,North,0,0.0,0.0,65,0.00,,,0.00,WUHU216HW,2013-07-07 08:06:00,
2013-07-07 01:11:00,64.4,52.4,29.67,North,0,0.0,0.0,65,0.00,,,0.00,WUHU216HW,2013-07-07 08:11:00,
2013-07-07 01:17:00,64.3,52.2,29.67,North,0,0.0,0.0,65,0.00,,,0.00,WUHU216HW,2013-07-07 08:17:00,
2013-07-07 01:22:00,64.3,52.2,29.67,North,0,0.0,0.0,65,0.00,,,0.00,WUHU216HW,2013-07-07 08:22:00,
2013-07-07 01:27:00,64.1,52.0,29.67,North,0,0.0,0.0,65,0.00,,,0.00,WUHU216HW,2013-07-07 08:27:00,
2013-07-07 01:32:00,63.9,52.3,29.67,North,0,0.0,0.0,66,0.00,,,0.00,WUHU216HW,2013-07-07 08:32:00,
2013-07-07 01:37:00,63.9,51.8,29.67,North,0,0.0,0.0,65,0.00,,,0.00,WUHU216HW,2013-07-07 08:37:00,
2013-07-07 01:42:00,63.7,52.1,29.67,North,0,0.0,0.0,66,0.00,,,0.00,WUHU216HW,2013-07-07 08:42:00,
2013-07-07 01:47:00,63.7,52.1,29.67,North,0,0.0,0.0,66,0.00,,,0.00,WUHU216HW,2013-07-07 08:47:00,
2013-07-07 01:52:00,63.5,52.4,29.67,North,0,0.0,0.0,67,0.00,,,0.00,WUHU216HW,2013-07-07 08:52:00,
2013-07-07 01:57:00,63.4,52.2,29.67,North,0,0.0,0.0,67,0.00,,,0.00,WUHU216HW,2013-07-07 08:57:00,
2013-07-07 02:02:00,63.4,52.2,29.67,North,0,0.0,0.0,67,0.00,,,0.00,WUHU216HW,2013-07-07 09:02:00,
2013-07-07 02:07:00,63.2,52.0,29.67,North,0,0.0,0.0,67,0.00,,,0.00,WUHU216HW,2013-07-07 09:07:00,
2013-07-07 02:12:00,63.0,52.3,29.67,North,0,0.0,0.0,68,0.00,,,0.00,WUHU216HW,2013-07-07 09:12:00,
2013-07-07 02:17:00,63.0,52.3,29.67,North,0,0.0,0.0,68,0.00,,,0.00,WUHU216HW,2013-07-07 09:17:00,
2013-07-07 02:22:00,63.0,52.3,29.67,North,0,0.0,0.0,68,0.00,,,0.00,WUHU216HW,2013-07-07 09:22:00,
2013-07-07 02:28:00,62.8,52.1,29.67,North,0,0.0,0.0,68,0.00,,,0.00,WUHU216HW,2013-07-07 09:28:00,
2013-07-07 02:33:00,62.6,51.9,29.67,North,0,0.0,0.0,68,0.00,,,0.00,WUHU216HW,2013-07-07 09:33:00,
2013-07-07 02:38:00,62.6,51.9,29.67,North,0,0.0,0.0,68,0.00,,,0.00,WUHU216HW,2013-07-07 09:38:00,
2013-07-07 02:43:00,62.5,51.8,29.67,North,0,0.0,0.0,68,0.00,,,0.00,WUHU216HW,2013-07-07 09:43:00,
2013-07-07 02:48:00,62.5,51.8,29.67,North,0,0.0,0.0,68,0.00,,,0.00,WUHU216HW,2013-07-07 09:48:00,
2013-07-07 02:53:00,62.3,51.6,29.67,North,0,0.0,0.0,68,0.00,,,0.00,WUHU216HW,2013-07-07 09:53:00,
2013-07-07 02:58:00,62.3,52.0,29.68,North,0,0.0,0.0,69,0.00,,,0.00,WUHU216HW,2013-07-07 09:58:00,
2013-07-07 03:03:00,62.1,51.8,29.68,North,0,0.0,0.0,69,0.00,,,0.00,WUHU216HW,2013-07-07 10:03:00,
2013-07-07 03:08:00,61.9,51.7,29.67,North,0,0.0,0.0,69,0.00,,,0.00,WUHU216HW,2013-07-07 10:08:00,
2013-07-07 03:13:00,61.9,51.7,29.68,North,0,0.0,0.0,69,0.00,,,0.00,WUHU216HW,2013-07-07 10:13:00,
2013-07-07 03:18:00,61.7,51.5,29.68,North,0,0.0,0.0,69,0.00,,,0.00,WUHU216HW,2013-07-07 10:18:00,
2013-07-07 03:24:00,61.7,51.5,29.67,North,0,0.0,0.0,69,0.00,,,0.00,WUHU216HW,2013-07-07 10:24:00,
2013-07-07 03:29:00,61.6,51.4,29.68,North,0,0.0,0.0,69,0.00,,,0.00,WUHU216HW,2013-07-07 10:29:00,
2013-07-07 03:34:00,61.6,51.4,29.68,North,0,0.0,0.0,69,0.00,,,0.00,WUHU216HW,2013-07-07 10:34:00,
2013-07-07 03:39:00,61.6,51.4,29.68,North,0,0.0,0.0,69,0.00,,,0.00,WUHU216HW,2013-07-07 10:39:00,
2013-07-07 03:44:00,61.4,51.2,29.68,North,0,0.0,0.0,69,0.00,,,0.00,WUHU216HW,2013-07-07 10:44:00,
2013-07-07 03:49:00,61.4,51.6,29.68,North,0,0.0,0.0,70,0.00,,,0.00,WUHU216HW,2013-07-07 10:49:00,
2013-07-07 03:54:00,61.4,51.6,29.68,North,0,0.0,0.0,70,0.00,,,0.00,WUHU216HW,2013-07-07 10:54:00,
2013-07-07 03:59:00,61.2,51.5,29.68,North,0,0.0,0.0,70,0.00,,,0.00,WUHU216HW,2013-07-07 10:59:00,
2013-07-07 04:04:00,61.2,51.5,29.68,North,0,0.0,0.0,70,0.00,,,0.00,WUHU216HW,2013-07-07 11:04:00,
2013-07-07 04:09:00,61.0,51.7,29.68,North,0,0.0,0.0,71,0.00,,,0.00,WUHU216HW,2013-07-07 11:09:00,
2013-07-07 04:14:00,61.0,51.7,29.68,North,0,0.0,0.0,71,0.00,,,0.00,WUHU216HW,2013-07-07 11:14:00,
2013-07-07 04:19:00,60.8,51.5,29.69,North,0,0.0,0.0,71,0.00,,,0.00,WUHU216HW,2013-07-07 11:19:00,
2013-07-07 04:25:00,60.8,51.5,29.69,North,0,0.0,0.0,71,0.00,,,0.00,WUHU216HW,2013-07-07 11:25:00,
2013-07-07 04:30:00,60.7,51.7,29.69,North,0,0.0,0.0,72,0.00,,,0.00,WUHU216HW,2013-07-07 11:30:00,
2013-07-07 04:35:00,60.5,51.5,29.69,North,0,0.0,0.0,72,0.00,,,0.00,WUHU216HW,2013-07-07 11:35:00,
2013-07-07 04:40:00,60.5,51.8,29.69,North,0,0.0,0.0,73,0.00,,,0.00,WUHU216HW,2013-07-07 11:40:00,
2013-07-07 04:45:00,60.5,51.5,29.69,North,0,0.0,0.0,72,0.00,,,0.00,WUHU216HW,2013-07-07 11:45:00,
2013-07-07 04:50:00,60.3,51.7,29.69,North,0,0.0,0.0,73,0.00,,,0.00,WUHU216HW,2013-07-07 11:50:00,
2013-07-07 04:55:00,60.1,51.5,29.69,North,0,0.0,0.0,73,0.00,,,0.00,WUHU216HW,2013-07-07 11:55:00,
2013-07-07 05:00:00,60.1,51.5,29.69,North,0,0.0,0.0,73,0.00,,,0.00,WUHU216HW,2013-07-07 12:00:00,
2013-07-07 05:05:00,60.1,51.5,29.69,North,0,0.0,0.0,73,0.00,,,0.00,WUHU216HW,2013-07-07 12:05:00,
2013-07-07 05:10:00,59.9,51.3,29.69,North,0,0.0,0.0,73,0.00,,,0.00,WUHU216HW,2013-07-07 12:10:00,
2013-07-07 05:15:00,59.8,51.1,29.69,North,0,0.0,0.0,73,0.00,,,0.00,WUHU216HW,2013-07-07 12:15:00,
2013-07-07 05:21:00,59.8,51.1,29.69,North,0,0.0,0.0,73,0.00,,,0.00,WUHU216HW,2013-07-07 12:21:00,
2013-07-07 05:26:00,59.8,51.1,29.69,North,0,0.0,0.0,73,0.00,,,0.00,WUHU216HW,2013-07-07 12:26:00,
2013-07-07 05:31:00,59.6,51.3,29.69,North,0,0.0,0.0,74,0.00,,,0.00,WUHU216HW,2013-07-07 12:31:00,
2013-07-07 05:36:00,59.6,51.3,29.69,North,0,0.0,0.0,74,0.00,,,0.00,WUHU216HW,2013-07-07 12:36:00,
2013-07-07 05:41:00,59.6,51.3,29.69,North,0,0.0,0.0,74,0.00,,,0.00,WUHU216HW,2013-07-07 12:41:00,
2013-07-07 05:46:00,59.4,51.1,29.69,North,0,0.0,0.0,74,0.00,,,0.00,WUHU216HW,2013-07-07 12:46:00,
2013-07-07 05:51:00,59.4,51.1,29.69,North,0,0.0,0.0,74,0.00,,,0.00,WUHU216HW,2013-07-07 12:51:00,
2013-07-07 05:56:00,59.4,51.1,29.69,North,0,0.0,0.0,74,0.00,,,0.00,WUHU216HW,2013-07-07 12:56:00,
2013-07-07 06:01:00,59.2,50.9,29.69,North,0,0.0,0.0,74,0.00,,,0.00,WUHU216HW,2013-07-07 13:01:00,
2013-07-07 06:06:00,59.2,50.9,29.70,North,0,0.0,0.0,74,0.00,,,0.00,WUHU216HW,2013-07-07 13:06:00,
2013-07-07 06:11:00,59.2,51.3,29.70,North,0,0.0,0.0,75,0.00,,,0.00,WUHU216HW,2013-07-07 13:11:00,
2013-07-07 06:16:00,59.0,51.1,29.70,North,0,0.0,0.0,75,0.00,,,0.00,WUHU216HW,2013-07-07 13:16:00,
2013-07-07 06:22:00,59.2,51.3,29.70,North,0,0.0,0.0,75,0.00,,,0.00,WUHU216HW,2013-07-07 13:22:00,
2013-07-07 06:27:00,59.2,51.3,29.70,North,0,0.0,0.0,75,0.00,,,0.00,WUHU216HW,2013-07-07 13:27:00,
2013-07-07 06:32:00,59.2,51.3,29.70,North,0,0.0,0.0,75,0.00,,,0.00,WUHU216HW,2013-07-07 13:32:00,
2013-07-07 06:37:00,59.2,51.7,29.71,North,0,0.0,0.0,76,0.00,,,0.00,WUHU216HW,2013-07-07 13:37:00,
2013-07-07 06:42:00,59.4,51.8,29.70,North,0,0.0,0.0,76,0.00,,,0.00,WUHU216HW,2013-07-07 13:42:00,
2013-07-07 06:47:00,59.4,51.8,29.71,North,0,0.0,0.0,76,0.00,,,0.00,WUHU216HW,2013-07-07 13:47:00,
2013-07-07 06:52:00,59.6,52.0,29.71,North,0,0.0,0.0,76,0.00,,,0.00,WUHU216HW,2013-07-07 13:52:00,
2013-07-07 06:57:00,59.8,52.2,29.71,North,0,0.0,0.0,76,0.00,,,0.00,WUHU216HW,2013-07-07 13:57:00,
2013-07-07 07:02:00,59.8,52.2,29.71,North,0,0.0,0.0,76,0.00,,,0.00,WUHU216HW,2013-07-07 14:02:00,
2013-07-07 07:07:00,59.9,52.4,29.71,North,0,0.0,0.0,76,0.00,,,0.00,WUHU216HW,2013-07-07 14:07:00,
2013-07-07 07:12:00,60.1,52.2,29.72,North,0,0.0,0.0,75,0.00,,,0.00,WUHU216HW,2013-07-07 14:12:00,
2013-07-07 07:18:00,60.7,52.7,29.72,North,0,0.0,0.0,75,0.00,,,0.00,WUHU216HW,2013-07-07 14:18:00,
2013-07-07 07:23:00,60.8,52.9,29.72,North,0,0.0,0.0,75,0.00,,,0.00,WUHU216HW,2013-07-07 14:23:00,
2013-07-07 07:28:00,61.2,52.9,29.72,North,0,0.0,0.0,74,0.00,,,0.00,WUHU216HW,2013-07-07 14:28:00,
2013-07-07 07:33:00,61.7,53.4,29.72,North,0,0.0,0.0,74,0.00,,,0.00,WUHU216HW,2013-07-07 14:33:00,
2013-07-07 07:38:00,61.9,53.2,29.72,North,0,0.0,0.0,73,0.00,,,0.00,WUHU216HW,2013-07-07 14:38:00,
2013-07-07 07:43:00,62.3,53.5,29.72,North,0,0.0,0.0,73,0.00,,,0.00,WUHU216HW,2013-07-07 14:43:00,
2013-07-07 07:48:00,62.5,53.3,29.72,North,0,0.0,0.0,72,0.00,,,0.00,WUHU216HW,2013-07-07 14:48:00,
2013-07-07 07:53:00,62.8,54.0,29.72,North,0,0.0,0.0,73,0.00,,,0.00,WUHU216HW,2013-07-07 14:53:00,
2013-07-07 07:58:00,63.0,53.8,29.72,North,0,0.0,0.0,72,0.00,,,0.00,WUHU216HW,2013-07-07 14:58:00,
2013-07-07 08:03:00,63.4,54.2,29.73,North,0,0.0,0.0,72,0.00,,,0.00,WUHU216HW,2013-07-07 15:03:00,
2013-07-07 08:09:00,63.7,54.2,29.73,North,0,0.0,0.0,71,0.00,,,0.00,WUHU216HW,2013-07-07 15:09:00,
2013-07-07 08:14:00,63.9,54.0,29.73,North,0,0.0,0.0,70,0.00,,,0.00,WUHU216HW,2013-07-07 15:14:00,
2013-07-07 08:19:00,64.3,54.4,29.73,North,0,0.0,0.0,70,0.00,,,0.00,WUHU216HW,2013-07-07 15:19:00,
2013-07-07 08:24:00,64.4,54.5,29.73,North,0,0.0,0.0,70,0.00,,,0.00,WUHU216HW,2013-07-07 15:24:00,
2013-07-07 08:29:00,64.8,54.9,29.73,North,0,0.0,0.0,70,0.00,,,0.00,WUHU216HW,2013-07-07 15:29:00,
2013-07-07 08:34:00,65.2,54.7,29.73,North,0,0.0,0.0,69,0.00,,,0.00,WUHU216HW,2013-07-07 15:34:00,
2013-07-07 08:39:00,65.5,55.1,29.73,North,0,0.0,0.0,69,0.00,,,0.00,WUHU216HW,2013-07-07 15:39:00,
2013-07-07 08:44:00,66.1,55.2,29.73,North,0,0.0,0.0,68,0.00,,,0.00,WUHU216HW,2013-07-07 15:44:00,
2013-07-07 08:49:00,66.2,55.4,29.73,North,0,0.0,0.0,68,0.00,,,0.00,WUHU216HW,2013-07-07 15:49:00,
2013-07-07 08:54:00,66.8,55.4,29.73,North,0,0.0,0.0,67,0.00,,,0.00,WUHU216HW,2013-07-07 15:54:00,
2013-07-07 08:59:00,67.0,55.6,29.73,North,0,0.0,0.0,67,0.00,,,0.00,WUHU216HW,2013-07-07 15:59:00,
2013-07-07 09:04:00,67.5,55.7,29.73,North,0,0.0,0.0,66,0.00,,,0.00,WUHU216HW,2013-07-07 16:04:00,
2013-07-07 09:09:00,68.0,56.3,29.73,North,0,0.0,0.0,66,0.00,,,0.00,WUHU216HW,2013-07-07 16:09:00,
2013-07-07 09:15:00,68.6,56.4,29.73,North,0,0.0,0.0,65,0.00,,,0.00,WUHU216HW,2013-07-07 16:15:00,
2013-07-07 09:20:00,68.9,56.7,29.73,North,0,0.0,0.0,65,0.00,,,0.00,WUHU216HW,2013-07-07 16:20:00,
2013-07-07 09:25:00,69.3,57.0,29.73,North,0,0.0,0.0,65,0.00,,,0.00,WUHU216HW,2013-07-07 16:25:00,
2013-07-07 09:30:00,69.8,57.1,29.73,North,0,0.0,0.0,64,0.00,,,0.00,WUHU216HW,2013-07-07 16:30:00,
2013-07-07 09:35:00,70.2,57.1,29.73,North,0,0.0,0.0,63,0.00,,,0.00,WUHU216HW,2013-07-07 16:35:00,
2013-07-07 09:40:00,70.6,57.3,29.73,North,0,0.0,0.0,63,0.00,,,0.00,WUHU216HW,2013-07-07 16:40:00,
2013-07-07 09:45:00,71.1,57.9,29.73,North,0,0.0,0.0,63,0.00,,,0.00,WUHU216HW,2013-07-07 16:45:00,
2013-07-07 09:50:00,71.3,58.1,29.73,North,0,0.0,0.0,63,0.00,,,0.00,WUHU216HW,2013-07-07 16:50:00,
2013-07-07 09:55:00,71.6,58.0,29.73,North,0,0.0,0.0,62,0.00,,,0.00,WUHU216HW,2013-07-07 16:55:00,
2013-07-07 10:01:00,71.8,58.1,29.73,North,0,0.0,0.0,62,0.00,,,0.00,WUHU216HW,2013-07-07 17:01:00,
2013-07-07 10:06:00,72.2,58.0,29.73,North,0,0.0,0.0,61,0.00,,,0.00,WUHU216HW,2013-07-07 17:06:00,
2013-07-07 10:11:00,72.5,58.3,29.72,North,0,0.0,0.0,61,0.00,,,0.00,WUHU216HW,2013-07-07 17:11:00,
2013-07-07 10:16:00,73.1,58.3,29.72,North,0,0.0,0.0,60,0.00,,,0.00,WUHU216HW,2013-07-07 17:16:00,
2013-07-07 10:21:00,73.4,58.7,29.72,North,0,0.0,0.0,60,0.00,,,0.00,WUHU216HW,2013-07-07 17:21:00,
2013-07-07 10:26:00,73.6,58.3,29.72,North,0,0.0,0.0,59,0.00,,,0.00,WUHU216HW,2013-07-07 17:26:00,
2013-07-07 10:31:00,74.3,59.0,29.73,North,0,0.0,0.0,59,0.00,,,0.00,WUHU216HW,2013-07-07 17:31:00,
2013-07-07 10:36:00,74.7,59.0,29.73,North,0,0.0,0.0,58,0.00,,,0.00,WUHU216HW,2013-07-07 17:36:00,
2013-07-07 10:41:00,74.9,59.1,29.73,North,0,0.0,0.0,58,0.00,,,0.00,WUHU216HW,2013-07-07 17:41:00,
2013-07-07 10:46:00,75.2,59.0,29.73,North,0,0.0,0.0,57,0.00,,,0.00,WUHU216HW,2013-07-07 17:46:00,
2013-07-07 10:51:00,75.2,59.0,29.73,North,0,0.0,0.0,57,0.00,,,0.00,WUHU216HW,2013-07-07 17:51:00,
2013-07-07 10:56:00,76.0,59.1,29.73,North,0,0.0,0.0,56,0.00,,,0.00,WUHU216HW,2013-07-07 17:56:00,
2013-07-07 11:02:00,76.5,59.6,29.73,North,0,0.0,0.0,56,0.00,,,0.00,WUHU216HW,2013-07-07 18:02:00,
2013-07-07 11:07:00,77.0,59.6,29.73,North,0,0.0,0.0,55,0.00,,,0.00,WUHU216HW,2013-07-07 18:07:00,
2013-07-07 11:12:00,77.4,60.0,29.73,North,0,0.0,0.0,55,0.00,,,0.00,WUHU216HW,2013-07-07 18:12:00,
2013-07-07 11:17:00,77.9,59.4,29.72,North,0,0.0,0.0,53,0.00,,,0.00,WUHU216HW,2013-07-07 18:17:00,
2013-07-07 11:22:00,78.7,59.6,29.73,North,0,0.0,0.0,52,0.00,,,0.00,WUHU216HW,2013-07-07 18:22:00,
2013-07-07 11:27:00,79.0,59.9,29.73,North,0,0.0,0.0,52,0.00,,,0.00,WUHU216HW,2013-07-07 18:27:00,
2013-07-07 11:32:00,79.4,59.7,29.73,North,0,0.0,0.0,51,0.00,,,0.00,WUHU216HW,2013-07-07 18:32:00,
2013-07-07 11:37:00,79.9,59.7,29.73,North,0,0.0,0.0,50,0.00,,,0.00,WUHU216HW,2013-07-07 18:37:00,
2013-07-07 11:42:00,80.3,59.9,29.73,North,0,0.0,0.0,50,0.00,,,0.00,WUHU216HW,2013-07-07 18:42:00,
2013-07-07 11:47:00,80.8,60.5,29.73,North,0,0.0,0.0,50,0.00,,,0.00,WUHU216HW,2013-07-07 18:47:00,
2013-07-07 11:52:00,81.0,60.0,29.73,North,0,0.0,0.0,49,0.00,,,0.00,WUHU216HW,2013-07-07 18:52:00,
2013-07-07 11:58:00,81.0,59.4,29.73,North,0,0.0,0.0,48,0.00,,,0.00,WUHU216HW,2013-07-07 18:58:00,
2013-07-07 12:03:00,81.5,59.3,29.73,North,0,0.0,0.0,47,0.00,,,0.00,WUHU216HW,2013-07-07 19:03:00,
2013-07-07 12:08:00,82.3,59.3,29.73,North,0,0.0,0.0,46,0.00,,,0.00,WUHU216HW,2013-07-07 19:08:00,
2013-07-07 12:13:00,83.0,60.0,29.73,North,0,0.0,0.0,46,0.00,,,0.00,WUHU216HW,2013-07-07 19:13:00,
2013-07-07 12:18:00,83.5,59.9,29.72,North,0,0.0,0.0,45,0.00,,,0.00,WUHU216HW,2013-07-07 19:18:00,
2013-07-07 12:23:00,83.9,60.2,29.72,North,0,0.0,0.0,45,0.00,,,0.00,WUHU216HW,2013-07-07 19:23:00,
2013-07-07 12:25:00,84.1,59.8,29.72,North,0,0.0,0.0,44,0.00,,,0.00,WUHU216HW,2013-07-07 19:25:00,
2013-07-07 12:30:00,84.6,59.7,29.72,North,0,0.0,0.0,43,0.00,,,0.00,WUHU216HW,2013-07-07 19:30:00,
2013-07-07 12:35:00,85.1,59.5,29.72,North,0,0.0,0.0,42,0.00,,,0.00,WUHU216HW,2013-07-07 19:35:00,
2013-07-07 12:40:00,85.9,60.1,29.72,North,0,0.0,0.0,42,0.00,,,0.00,WUHU216HW,2013-07-07 19:40:00,
2013-07-07 12:46:00,86.4,60.0,29.72,North,0,0.0,0.0,41,0.00,,,0.00,WUHU216HW,2013-07-07 19:46:00,
2013-07-07 12:51:00,86.8,60.3,29.72,North,0,0.0,0.0,41,0.00,,,0.00,WUHU216HW,2013-07-07 19:51:00,
2013-07-07 12:56:00,87.5,60.9,29.71,North,0,0.0,0.0,41,0.00,,,0.00,WUHU216HW,2013-07-07 19:56:00,
2013-07-07 13:01:00,87.7,60.5,29.71,North,0,0.0,0.0,40,0.00,,,0.00,WUHU216HW,2013-07-07 20:01:00,
2013-07-07 13:06:00,88.2,60.1,29.71,North,0,0.0,0.0,39,0.00,,,0.00,WUHU216HW,2013-07-07 20:06:00,
2013-07-07 13:11:00,88.9,60.8,29.71,North,0,0.0,0.0,39,0.00,,,0.00,WUHU216HW,2013-07-07 20:11:00,
2013-07-07 13:16:00,89.5,61.2,29.71,North,0,0.0,0.0,39,0.00,,,0.00,WUHU216HW,2013-07-07 20:16:00,
2013-07-07 13:22:00,89.8,59.1,29.71,North,0,0.0,0.0,36,0.00,,,0.00,WUHU216HW,2013-07-07 20:22:00,
2013-07-07 13:27:00,90.4,59.6,29.71,North,0,0.0,0.0,36,0.00,,,0.00,WUHU216HW,2013-07-07 20:27:00,
2013-07-07 13:32:00,90.9,60.0,29.70,North,0,0.0,0.0,36,0.00,,,0.00,WUHU216HW,2013-07-07 20:32:00,
2013-07-07 13:37:00,91.4,59.8,29.70,North,0,0.0,0.0,35,0.00,,,0.00,WUHU216HW,2013-07-07 20:37:00,
2013-07-07 13:42:00,92.0,60.2,29.70,North,0,0.0,0.0,35,0.00,,,0.00,WUHU216HW,2013-07-07 20:42:00,
2013-07-07 13:47:00,92.3,59.8,29.70,North,0,0.0,0.0,34,0.00,,,0.00,WUHU216HW,2013-07-07 20:47:00,
2013-07-07 13:52:00,92.9,60.2,29.70,North,0,0.0,0.0,34,0.00,,,0.00,WUHU216HW,2013-07-07 20:52:00,
2013-07-07 13:57:00,93.6,59.2,29.69,North,0,0.0,0.0,32,0.00,,,0.00,WUHU216HW,2013-07-07 20:57:00,
2013-07-07 14:02:00,94.0,60.3,29.69,North,0,0.0,0.0,33,0.00,,,0.00,WUHU216HW,2013-07-07 21:02:00,
2013-07-07 14:07:00,94.7,60.1,29.69,North,0,0.0,0.0,32,0.00,,,0.00,WUHU216HW,2013-07-07 21:07:00,
2013-07-07 14:13:00,95.2,60.7,29.69,North,0,0.0,0.0,32,0.00,,,0.00,WUHU216HW,2013-07-07 21:13:00,
2013-07-07 14:18:00,95.6,60.1,29.69,North,0,0.0,0.0,31,0.00,,,0.00,WUHU216HW,2013-07-07 21:18:00,
2013-07-07 14:23:00,96.1,60.6,29.69,North,0,0.0,0.0,31,0.00,,,0.00,WUHU216HW,2013-07-07 21:23:00,
2013-07-07 14:28:00,96.5,60.0,29.69,North,0,0.0,0.0,30,0.00,,,0.00,WUHU216HW,2013-07-07 21:28:00,
2013-07-07 14:33:00,96.7,60.1,29.69,North,0,0.0,0.0,30,0.00,,,0.00,WUHU216HW,2013-07-07 21:33:00,
2013-07-07 14:38:00,97.2,60.7,29.69,North,0,0.0,0.0,30,0.00,,,0.00,WUHU216HW,2013-07-07 21:38:00,
2013-07-07 14:43:00,97.0,60.5,29.69,North,0,0.0,0.0,30,0.00,,,0.00,WUHU216HW,2013-07-07 21:43:00,
2013-07-07 14:48:00,97.6,60.9,29.68,North,0,0.0,0.0,30,0.00,,,0.00,WUHU216HW,2013-07-07 21:48:00,
2013-07-07 14:53:00,97.7,60.0,29.68,North,0,0.0,0.0,29,0.00,,,0.00,WUHU216HW,2013-07-07 21:53:00,
2013-07-07 14:58:00,98.1,58.2,29.68,North,0,0.0,0.0,27,0.00,,,0.00,WUHU216HW,2013-07-07 21:58:00,
2013-07-07 15:03:00,98.6,58.6,29.68,North,0,0.0,0.0,27,0.00,,,0.00,WUHU216HW,2013-07-07 22:03:00,
2013-07-07 15:08:00,98.6,56.3,29.68,North,0,0.0,0.0,25,0.00,,,0.00,WUHU216HW,2013-07-07 22:08:00,
2013-07-07 15:14:00,98.5,57.3,29.68,North,0,0.0,0.0,26,0.00,,,0.00,WUHU216HW,2013-07-07 22:14:00,
2013-07-07 15:19:00,99.0,57.8,29.68,North,0,0.0,0.0,26,0.00,,,0.00,WUHU216HW,2013-07-07 22:19:00,
2013-07-07 15:24:00,99.4,58.1,29.68,North,0,0.0,0.0,26,0.00,,,0.00,WUHU216HW,2013-07-07 22:24:00,
2013-07-07 15:29:00,99.7,57.2,29.68,North,0,0.0,0.0,25,0.00,,,0.00,WUHU216HW,2013-07-07 22:29:00,
2013-07-07 15:34:00,99.9,57.4,29.68,North,0,0.0,0.0,25,0.00,,,0.00,WUHU216HW,2013-07-07 22:34:00,
2013-07-07 15:39:00,100.3,57.7,29.67,North,0,0.0,0.0,25,0.00,,,0.00,WUHU216HW,2013-07-07 22:39:00,
2013-07-07 15:44:00,100.4,56.7,29.67,North,0,0.0,0.0,24,0.00,,,0.00,WUHU216HW,2013-07-07 22:44:00,
2013-07-07 15:49:00,100.4,55.6,29.67,North,0,0.0,0.0,23,0.00,,,0.00,WUHU216HW,2013-07-07 22:49:00,
2013-07-07 15:54:00,100.4,56.7,29.67,North,0,0.0,0.0,24,0.00,,,0.00,WUHU216HW,2013-07-07 22:54:00,
2013-07-07 15:59:00,100.4,56.7,29.67,North,0,0.0,0.0,24,0.00,,,0.00,WUHU216HW,2013-07-07 22:59:00,
2013-07-07 16:04:00,100.6,54.6,29.67,North,0,0.0,0.0,22,0.00,,,0.00,WUHU216HW,2013-07-07 23:04:00,
2013-07-07 16:09:00,100.4,55.6,29.67,North,0,0.0,0.0,23,0.00,,,0.00,WUHU216HW,2013-07-07 23:09:00,
2013-07-07 16:15:00,100.6,55.7,29.67,North,0,0.0,0.0,23,0.00,,,0.00,WUHU216HW,2013-07-07 23:15:00,
2013-07-07 16:20:00,100.6,54.6,29.67,North,0,0.0,0.0,22,0.00,,,0.00,WUHU216HW,2013-07-07 23:20:00,
2013-07-07 16:25:00,100.4,54.5,29.67,North,0,0.0,0.0,22,0.00,,,0.00,WUHU216HW,2013-07-07 23:25:00,
2013-07-07 16:30:00,100.3,54.4,29.67,North,0,0.0,0.0,22,0.00,,,0.00,WUHU216HW,2013-07-07 23:30:00,
2013-07-07 16:35:00,100.4,54.5,29.67,North,0,0.0,0.0,22,0.00,,,0.00,WUHU216HW,2013-07-07 23:35:00,
2013-07-07 16:40:00,100.4,52.2,29.66,North,0,0.0,0.0,20,0.00,,,0.00,WUHU216HW,2013-07-07 23:40:00,
2013-07-07 16:45:00,100.4,50.4,29.67,North,0,0.0,0.0,19,0.00,,,0.00,WUHU216HW,2013-07-07 23:45:00,
2013-07-07 16:50:00,100.3,52.0,29.66,North,0,0.0,0.0,20,0.00,,,0.00,WUHU216HW,2013-07-07 23:50:00,
2013-07-07 16:55:00,99.7,48.1,29.66,North,0,0.0,0.0,18,0.00,,,0.00,WUHU216HW,2013-07-07 23:55:00,
2013-07-07 17:00:00,99.7,49.9,29.66,North,0,0.0,0.0,19,0.00,,,0.00,WUHU216HW,2013-07-08 00:00:00,
2013-07-07 17:05:00,99.7,49.9,29.66,North,0,0.0,0.0,19,0.00,,,0.00,WUHU216HW,2013-07-08 00:05:00,
2013-07-07 17:10:00,99.5,46.1,29.66,North,0,0.0,0.0,17,0.00,,,0.00,WUHU216HW,2013-07-08 00:10:00,
2013-07-07 17:16:00,99.2,44.0,29.66,North,0,0.0,0.0,16,0.00,,,0.00,WUHU216HW,2013-07-08 00:16:00,
2013-07-07 17:21:00,99.0,45.6,29.66,North,0,0.0,0.0,17,0.00,,,0.00,WUHU216HW,2013-07-08 00:21:00,
2013-07-07 17:26:00,98.5,43.4,29.66,North,0,0.0,0.0,16,0.00,,,0.00,WUHU216HW,2013-07-08 00:26:00,
2013-07-07 17:31:00,98.1,48.5,29.66,North,0,0.0,0.0,19,0.00,,,0.00,WUHU216HW,2013-07-08 00:31:00,
2013-07-07 17:36:00,98.1,44.9,29.66,North,0,0.0,0.0,17,0.00,,,0.00,WUHU216HW,2013-07-08 00:36:00,
2013-07-07 17:41:00,97.7,44.6,29.66,North,0,0.0,0.0,17,0.00,,,0.00,WUHU216HW,2013-07-08 00:41:00,
2013-07-07 17:46:00,97.6,42.7,29.65,North,0,0.0,0.0,16,0.00,,,0.00,WUHU216HW,2013-07-08 00:46:00,
2013-07-07 17:51:00,97.2,44.2,29.65,North,0,0.0,0.0,17,0.00,,,0.00,WUHU216HW,2013-07-08 00:51:00,
2013-07-07 17:56:00,97.2,42.4,29.65,North,0,0.0,0.0,16,0.00,,,0.00,WUHU216HW,2013-07-08 00:56:00,
2013-07-07 18:01:00,96.8,43.9,29.65,North,0,0.0,0.0,17,0.00,,,0.00,WUHU216HW,2013-07-08 01:01:00,
2013-07-07 18:06:00,96.5,43.7,29.66,North,0,0.0,0.0,17,0.00,,,0.00,WUHU216HW,2013-07-08 01:06:00,
2013-07-07 18:12:00,96.3,43.5,29.65,North,0,0.0,0.0,17,0.00,,,0.00,WUHU216HW,2013-07-08 01:12:00,
2013-07-07 18:17:00,95.9,46.7,29.65,North,0,0.0,0.0,19,0.00,,,0.00,WUHU216HW,2013-07-08 01:17:00,
2013-07-07 18:22:00,95.8,46.5,29.66,North,0,0.0,0.0,19,0.00,,,0.00,WUHU216HW,2013-07-08 01:22:00,
2013-07-07 18:27:00,95.8,46.5,29.66,North,0,0.0,0.0,19,0.00,,,0.00,WUHU216HW,2013-07-08 01:27:00,
2013-07-07 18:32:00,95.4,46.3,29.66,North,0,0.0,0.0,19,0.00,,,0.00,WUHU216HW,2013-07-08 01:32:00,
2013-07-07 18:37:00,95.0,45.9,29.66,North,0,0.0,0.0,19,0.00,,,0.00,WUHU216HW,2013-07-08 01:37:00,
2013-07-07 18:42:00,94.9,45.8,29.66,North,0,0.0,0.0,19,0.00,,,0.00,WUHU216HW,2013-07-08 01:42:00,
2013-07-07 18:47:00,94.3,45.4,29.66,North,0,0.0,0.0,19,0.00,,,0.00,WUHU216HW,2013-07-08 01:47:00,
2013-07-07 18:52:00,93.6,43.0,29.66,North,0,0.0,0.0,18,0.00,,,0.00,WUHU216HW,2013-07-08 01:52:00,
2013-07-07 18:57:00,93.4,42.8,29.66,North,0,0.0,0.0,18,0.00,,,0.00,WUHU216HW,2013-07-08 01:57:00,
2013-07-07 19:02:00,93.2,41.0,29.66,North,0,0.0,0.0,17,0.00,,,0.00,WUHU216HW,2013-07-08 02:02:00,
2013-07-07 19:08:00,93.4,41.1,29.66,North,0,0.0,0.0,17,0.00,,,0.00,WUHU216HW,2013-07-08 02:08:00,
2013-07-07 19:13:00,93.4,39.3,29.66,North,0,0.0,0.0,16,0.00,,,0.00,WUHU216HW,2013-07-08 02:13:00,
2013-07-07 19:18:00,93.2,41.0,29.66,North,0,0.0,0.0,17,0.00,,,0.00,WUHU216HW,2013-07-08 02:18:00,
2013-07-07 19:23:00,92.5,40.4,29.66,North,0,0.0,0.0,17,0.00,,,0.00,WUHU216HW,2013-07-08 02:23:00,
2013-07-07 19:28:00,92.2,41.9,29.66,North,0,0.0,0.0,18,0.00,,,0.00,WUHU216HW,2013-07-08 02:28:00,
2013-07-07 19:33:00,91.6,41.5,29.66,North,0,0.0,0.0,18,0.00,,,0.00,WUHU216HW,2013-07-08 02:33:00,
2013-07-07 19:38:00,90.7,40.8,29.66,North,0,0.0,0.0,18,0.00,,,0.00,WUHU216HW,2013-07-08 02:38:00,
2013-07-07 19:43:00,90.0,42.0,29.67,North,0,0.0,0.0,19,0.00,,,0.00,WUHU216HW,2013-07-08 02:43:00,
2013-07-07 19:48:00,89.5,41.5,29.66,North,0,0.0,0.0,19,0.00,,,0.00,WUHU216HW,2013-07-08 02:48:00,
2013-07-07 19:53:00,88.9,41.0,29.67,North,0,0.0,0.0,19,0.00,,,0.00,WUHU216HW,2013-07-08 02:53:00,
2013-07-07 19:58:00,88.4,42.4,29.67,North,0,0.0,0.0,20,0.00,,,0.00,WUHU216HW,2013-07-08 02:58:00,
2013-07-07 20:04:00,87.7,42.8,29.67,North,0,0.0,0.0,21,0.00,,,0.00,WUHU216HW,2013-07-08 03:04:00,
2013-07-07 20:09:00,86.9,43.3,29.67,North,0,0.0,0.0,22,0.00,,,0.00,WUHU216HW,2013-07-08 03:09:00,
2013-07-07 20:14:00,86.4,43.8,29.67,North,0,0.0,0.0,23,0.00,,,0.00,WUHU216HW,2013-07-08 03:14:00,
2013-07-07 20:19:00,85.7,45.5,29.67,North,0,0.0,0.0,25,0.00,,,0.00,WUHU216HW,2013-07-08 03:19:00,
2013-07-07 20:24:00,85.0,45.9,29.67,North,0,0.0,0.0,26,0.00,,,0.00,WUHU216HW,2013-07-08 03:24:00,
2013-07-07 20:29:00,84.6,47.7,29.68,North,0,0.0,0.0,28,0.00,,,0.00,WUHU216HW,2013-07-08 03:29:00,
2013-07-07 20:34:00,84.1,48.2,29.68,North,0,0.0,0.0,29,0.00,,,0.00,WUHU216HW,2013-07-08 03:34:00,
2013-07-07 20:39:00,83.7,49.1,29.68,North,0,0.0,0.0,30,0.00,,,0.00,WUHU216HW,2013-07-08 03:39:00,
2013-07-07 20:44:00,83.2,49.3,29.68,North,0,0.0,0.0,31,0.00,,,0.00,WUHU216HW,2013-07-08 03:44:00,
2013-07-07 20:49:00,82.4,50.2,29.68,North,0,0.0,0.0,33,0.00,,,0.00,WUHU216HW,2013-07-08 03:49:00,
2013-07-07 20:54:00,81.7,49.7,29.68,North,0,0.0,0.0,33,0.00,,,0.00,WUHU216HW,2013-07-08 03:54:00,
2013-07-07 20:59:00,81.5,50.3,29.68,North,0,0.0,0.0,34,0.00,,,0.00,WUHU216HW,2013-07-08 03:59:00,
2013-07-07 21:01:00,81.2,50.8,29.68,North,0,0.0,0.0,35,0.00,,,0.00,WUHU216HW,2013-07-08 04:01:00,
2013-07-07 21:06:00,80.5,51.7,29.68,North,0,0.0,0.0,37,0.00,,,0.00,WUHU216HW,2013-07-08 04:06:00,
2013-07-07 21:11:00,79.9,51.2,29.69,North,0,0.0,0.0,37,0.00,,,0.00,WUHU216HW,2013-07-08 04:11:00,
2013-07-07 21:17:00,79.6,51.7,29.69,North,0,0.0,0.0,38,0.00,,,0.00,WUHU216HW,2013-07-08 04:17:00,
2013-07-07 21:22:00,79.2,51.3,29.69,North,0,0.0,0.0,38,0.00,,,0.00,WUHU216HW,2013-07-08 04:22:00,
2013-07-07 21:27:00,78.8,51.8,29.69,North,0,0.0,0.0,39,0.00,,,0.00,WUHU216HW,2013-07-08 04:27:00,
2013-07-07 21:32:00,78.3,52.1,29.70,North,0,0.0,0.0,40,0.00,,,0.00,WUHU216HW,2013-07-08 04:32:00,
2013-07-07 21:37:00,77.8,52.2,29.70,North,0,0.0,0.0,41,0.00,,,0.00,WUHU216HW,2013-07-08 04:37:00,
2013-07-07 21:42:00,77.4,51.8,29.70,North,0,0.0,0.0,41,0.00,,,0.00,WUHU216HW,2013-07-08 04:42:00,
2013-07-07 21:47:00,76.9,52.0,29.70,North,0,0.0,0.0,42,0.00,,,0.00,WUHU216HW,2013-07-08 04:47:00,
2013-07-07 21:52:00,76.7,53.1,29.70,North,0,0.0,0.0,44,0.00,,,0.00,WUHU216HW,2013-07-08 04:52:00,
2013-07-07 21:57:00,75.4,52.6,29.70,North,0,0.0,0.0,45,0.00,,,0.00,WUHU216HW,2013-07-08 04:57:00,
2013-07-07 22:02:00,74.9,52.0,29.71,North,0,0.0,0.0,45,0.00,,,0.00,WUHU216HW,2013-07-08 05:02:00,
2013-07-07 22:07:00,74.3,52.8,29.71,North,0,0.0,0.0,47,0.00,,,0.00,WUHU216HW,2013-07-08 05:07:00,
2013-07-07 22:12:00,73.8,52.8,29.71,North,0,0.0,0.0,48,0.00,,,0.00,WUHU216HW,2013-07-08 05:12:00,
2013-07-07 22:18:00,73.4,53.0,29.71,North,0,0.0,0.0,49,0.00,,,0.00,WUHU216HW,2013-07-08 05:18:00,
2013-07-07 22:23:00,72.9,52.6,29.71,North,0,0.0,0.0,49,0.00,,,0.00,WUHU216HW,2013-07-08 05:23:00,
2013-07-07 22:28:00,72.5,52.8,29.71,North,0,0.0,0.0,50,0.00,,,0.00,WUHU216HW,2013-07-08 05:28:00,
2013-07-07 22:33:00,72.0,52.8,29.71,North,0,0.0,0.0,51,0.00,,,0.00,WUHU216HW,2013-07-08 05:33:00,
2013-07-07 22:38:00,71.6,52.6,29.71,North,0,0.0,0.0,51,0.00,,,0.00,WUHU216HW,2013-07-08 05:38:00,
2013-07-07 22:43:00,71.3,52.8,29.71,North,0,0.0,0.0,52,0.00,,,0.00,WUHU216HW,2013-07-08 05:43:00,
2013-07-07 22:48:00,70.9,52.4,29.71,North,0,0.0,0.0,52,0.00,,,0.00,WUHU216HW,2013-07-08 05:48:00,
2013-07-07 22:53:00,70.6,52.6,29.71,North,0,0.0,0.0,53,0.00,,,0.00,WUHU216HW,2013-07-08 05:53:00,
2013-07-07 22:58:00,70.2,52.2,29.71,North,0,0.0,0.0,53,0.00,,,0.00,WUHU216HW,2013-07-08 05:58:00,
2013-07-07 23:03:00,70.0,52.6,29.71,North,0,0.0,0.0,54,0.00,,,0.00,WUHU216HW,2013-07-08 06:03:00,
2013-07-07 23:08:00,69.8,51.9,29.71,North,0,0.0,0.0,53,0.00,,,0.00,WUHU216HW,2013-07-08 06:08:00,
2013-07-07 23:13:00,69.5,51.6,29.71,North,0,0.0,0.0,53,0.00,,,0.00,WUHU216HW,2013-07-08 06:13:00,
2013-07-07 23:19:00,69.1,51.8,29.71,North,0,0.0,0.0,54,0.00,,,0.00,WUHU216HW,2013-07-08 06:19:00,
2013-07-07 23:24:00,68.8,51.4,29.72,North,0,0.0,0.0,54,0.00,,,0.00,WUHU216HW,2013-07-08 06:24:00,
2013-07-07 23:29:00,68.4,51.6,29.72,North,0,0.0,0.0,55,0.00,,,0.00,WUHU216HW,2013-07-08 06:29:00,
2013-07-07 23:34:00,68.0,51.2,29.72,North,0,0.0,0.0,55,0.00,,,0.00,WUHU216HW,2013-07-08 06:34:00,
2013-07-07 23:39:00,67.9,51.6,29.72,North,0,0.0,0.0,56,0.00,,,0.00,WUHU216HW,2013-07-08 06:39:00,
2013-07-07 23:44:00,67.7,51.4,29.72,North,0,0.0,0.0,56,0.00,,,0.00,WUHU216HW,2013-07-08 06:44:00,
2013-07-07 23:49:00,67.5,51.2,29.72,North,0,0.0,0.0,56,0.00,,,0.00,WUHU216HW,2013-07-08 06:49:00,
2013-07-07 23:54:00,67.3,51.0,29.73,North,0,0.0,0.0,56,0.00,,,0.00,WUHU216HW,2013-07-08 06:54:00,
2013-07-07 23:59:00,67.1,50.9,29.73,North,0,0.0,0.0,56,0.00,,,0.00,WUHU216HW,2013-07-08 06:59:00,